Omaha, NE

6:44 AM CST on February 20, 2017 (GMT -0600)
Eppley Airfield

Weather History for KOMA - May, 2014

Change the Weather History Date:

Friday, May 16, 2014

  Actual Average Record
Temperature  
Mean Temperature 46 °F 62 °F  
Max Temperature 59 °F 74 °F 93 °F (1944)
Min Temperature 33 °F 51 °F 33 °F (2014)
Degree Days  
Heating Degree Days 19 5  
Month to date heating degree days 125 102  
Since 1 July heating degree days 6512 6104  
Cooling Degree Days 0 2  
Month to date cooling degree days 23 21  
Year to date cooling degree days 38 37  
Moisture  
Dew Point 30 °F    
Average Humidity 61    
Maximum Humidity 89    
Minimum Humidity 33    
Precipitation  
Precipitation 0.00 in 0.16 in 1.75 in (1896)
Month to date precipitation 2.53 2.36  
Year to date precipitation 6.22 8.88  
Snow  
Snow 0.00 in 0.00 in - ()
Month to date snowfall 0.0 0.1  
Since 1 July snowfall 17.8 26.5  
Snow Depth 0.00 in    
Sea Level Pressure  
Sea Level Pressure 30.13 in    
Wind  
Wind Speed 5 mph (WNW)    
Max Wind Speed 12 mph    
Max Gust Speed 20 mph    
Visibility 10 miles    
Events Fog    
T = Trace of Precipitation, MM = Missing Value Source: NWS Daily Summary

Daily Weather History Graph

Daily Weather History Graph

Search for Another Location

Airport or City:

Trip Planner

Search our weather history database for the weather conditions in past years. The results will help you decide how hot, cold, wet, or windy it might be!

Date:

Astronomy

May. 16, 2014 Rise Set
Actual Time 6:03 AM CDT 8:36 PM CDT
Civil Twilight 5:32 AM CDT 9:08 PM CDT
Nautical Twilight 4:53 AM CDT 9:47 PM CDT
Astronomical Twilight 4:09 AM CDT 10:32 PM CDT
Moon 10:44 PM CDT (5/16) 7:46 AM CDT (5/16)
Length of Visible Light 15h 35m
Length of Day
14h 32m
Waning Gibbous, 95% of the Moon is Illuminated
May 16
Waning Gibbous
May 21
Last Quarter
May 28
New
Jun 5
First Quarter
Jun 12
Full

Hourly Weather History & Observations

Time (CDT) Temp. Windchill Dew Point Humidity Pressure Visibility Wind Dir Wind Speed Gust Speed Precip Events Conditions
12:52 AM 39.2 °F 37.0 °F 28.4 °F 65% 30.16 in 10.0 mi NNW 3.5 mph - N/A   Clear
1:52 AM 39.0 °F 36.8 °F 28.9 °F 67% 30.17 in 10.0 mi North 3.5 mph - N/A   Clear
2:52 AM 37.4 °F - 30.2 °F 75% 30.14 in 10.0 mi Calm Calm - N/A   Clear
3:52 AM 36.0 °F - 30.0 °F 79% 30.14 in 10.0 mi Calm Calm - N/A   Clear
4:52 AM 34.0 °F - 30.0 °F 85% 30.16 in 10.0 mi Calm Calm - N/A   Partly Cloudy
5:52 AM 35.1 °F - 30.9 °F 85% 30.15 in 10.0 mi Calm Calm - N/A Fog Patches of Fog
6:52 AM 35.1 °F 32.2 °F 30.0 °F 82% 30.16 in 10.0 mi North 3.5 mph - N/A   Partly Cloudy
7:52 AM 39.9 °F 35.8 °F 30.0 °F 68% 30.16 in 10.0 mi NNE 5.8 mph - N/A   Mostly Cloudy
8:52 AM 44.1 °F 40.8 °F 30.9 °F 60% 30.17 in 10.0 mi North 5.8 mph - N/A   Mostly Cloudy
9:52 AM 48.9 °F - 28.9 °F 46% 30.15 in 10.0 mi Variable 4.6 mph - N/A   Mostly Cloudy
10:52 AM 48.9 °F - 28.0 °F 44% 30.14 in 10.0 mi Calm Calm - N/A   Mostly Cloudy
11:52 AM 52.0 °F - 28.9 °F 41% 30.13 in 10.0 mi North 5.8 mph - N/A   Mostly Cloudy
12:52 PM 53.1 °F - 28.0 °F 38% 30.12 in 10.0 mi South 5.8 mph - N/A   Mostly Cloudy
1:52 PM 57.0 °F - 28.0 °F 33% 30.10 in 10.0 mi Variable 4.6 mph - N/A   Mostly Cloudy
2:52 PM 55.4 °F - 28.4 °F 36% 30.08 in 10.0 mi WSW 4.6 mph - N/A   Mostly Cloudy
3:52 PM 57.0 °F - 28.9 °F 34% 30.08 in 10.0 mi West 9.2 mph - N/A   Overcast
4:52 PM 57.9 °F - 28.9 °F 33% 30.08 in 10.0 mi WNW 5.8 mph - N/A   Overcast
5:52 PM 57.9 °F - 28.9 °F 33% 30.08 in 10.0 mi West 10.4 mph - N/A   Mostly Cloudy
6:52 PM 55.9 °F - 30.0 °F 37% 30.09 in 10.0 mi WSW 9.2 mph - N/A   Mostly Cloudy
7:52 PM 55.9 °F - 30.9 °F 39% 30.09 in 10.0 mi WSW 9.2 mph - N/A   Mostly Cloudy
8:52 PM 53.1 °F - 32.0 °F 45% 30.11 in 10.0 mi WSW 5.8 mph - N/A   Scattered Clouds
9:52 PM 51.8 °F - 33.8 °F 50% 30.12 in 10.0 mi WSW 8.1 mph - N/A   Partly Cloudy
10:52 PM 51.1 °F - 34.0 °F 52% 30.14 in 10.0 mi WSW 6.9 mph - N/A   Partly Cloudy
11:52 PM 50.0 °F - 37.0 °F 61% 30.14 in 10.0 mi West 6.9 mph - N/A   Clear